Time,TemperatureF,DewpointF,PressureIn,WindDirection,WindDirectionDegrees,WindSpeedMPH,WindSpeedGustMPH,Humidity,HourlyPrecipIn,Conditions,Clouds,dailyrainin,SoftwareType,DateUTC
2013-05-28 00:03:00,75.7,68.0,30.16,ENE,70,2.0,6.0,77,0.00,,,0.00,weatherlink.com 1.10,2013-05-28 04:03:00,
2013-05-28 00:18:00,75.3,68.0,30.16,NE,37,2.0,7.0,79,0.00,,,0.00,weatherlink.com 1.10,2013-05-28 04:18:00,
2013-05-28 00:33:00,74.9,68.0,30.16,East,91,2.0,6.0,80,0.00,,,0.00,weatherlink.com 1.10,2013-05-28 04:33:00,
2013-05-28 00:48:00,74.6,68.0,30.16,East,79,4.0,6.0,81,0.00,,,0.00,weatherlink.com 1.10,2013-05-28 04:48:00,
2013-05-28 01:03:00,74.4,69.0,30.15,NE,35,3.0,7.0,82,0.00,,,0.00,weatherlink.com 1.10,2013-05-28 05:03:00,
2013-05-28 01:18:00,74.1,69.0,30.15,NE,48,1.0,5.0,83,0.00,,,0.00,weatherlink.com 1.10,2013-05-28 05:18:00,
2013-05-28 01:33:00,73.9,69.0,30.14,NE,44,1.0,6.0,84,0.00,,,0.00,weatherlink.com 1.10,2013-05-28 05:33:00,
2013-05-28 01:48:00,73.6,69.0,30.14,NE,49,3.0,7.0,85,0.00,,,0.00,weatherlink.com 1.10,2013-05-28 05:48:00,
2013-05-28 02:03:00,73.4,69.0,30.13,ESE,120,1.0,6.0,86,0.00,,,0.00,weatherlink.com 1.10,2013-05-28 06:03:00,
2013-05-28 02:18:00,73.1,69.0,30.13,North,1,2.0,4.0,87,0.00,,,0.00,weatherlink.com 1.10,2013-05-28 06:18:00,
2013-05-28 02:33:00,73.0,69.0,30.12,East,84,0.0,6.0,87,0.00,,,0.00,weatherlink.com 1.10,2013-05-28 06:33:00,
2013-05-28 02:48:00,72.9,69.0,30.12,NNE,20,2.0,7.0,88,0.00,,,0.00,weatherlink.com 1.10,2013-05-28 06:48:00,
2013-05-28 03:03:00,72.8,69.0,30.12,East,79,2.0,5.0,88,0.00,,,0.00,weatherlink.com 1.10,2013-05-28 07:03:00,
2013-05-28 03:18:00,72.6,69.0,30.11,ENE,75,3.0,8.0,89,0.00,,,0.00,weatherlink.com 1.10,2013-05-28 07:18:00,
2013-05-28 03:33:00,72.4,69.0,30.10,NE,35,1.0,6.0,89,0.00,,,0.00,weatherlink.com 1.10,2013-05-28 07:33:00,
2013-05-28 03:49:00,72.3,69.0,30.10,NNE,18,3.0,6.0,90,0.00,,,0.00,weatherlink.com 1.10,2013-05-28 07:49:00,
2013-05-28 04:04:00,72.1,69.0,30.10,North,352,0.0,4.0,90,0.00,,,0.00,weatherlink.com 1.10,2013-05-28 08:04:00,
2013-05-28 04:19:00,72.1,69.0,30.09,SE,124,2.0,5.0,90,0.00,,,0.00,weatherlink.com 1.10,2013-05-28 08:19:00,
2013-05-28 04:34:00,72.2,69.0,30.09,NE,42,4.0,6.0,90,0.00,,,0.00,weatherlink.com 1.10,2013-05-28 08:34:00,
2013-05-28 04:49:00,72.1,69.0,30.09,ENE,76,0.0,6.0,91,0.00,,,0.00,weatherlink.com 1.10,2013-05-28 08:49:00,
2013-05-28 05:04:00,72.2,69.0,30.09,NE,35,2.0,4.0,90,0.00,,,0.00,weatherlink.com 1.10,2013-05-28 09:04:00,
2013-05-28 05:19:00,72.2,70.0,30.10,SSE,166,2.0,5.0,91,0.00,,,0.00,weatherlink.com 1.10,2013-05-28 09:19:00,
2013-05-28 05:36:00,72.2,70.0,30.10,North,7,2.0,4.0,91,0.00,,,0.00,weatherlink.com 1.10,2013-05-28 09:36:00,
2013-05-28 05:54:00,71.9,69.0,30.11,ENE,59,1.0,4.0,91,0.00,,,0.00,weatherlink.com 1.10,2013-05-28 09:54:00,
2013-05-28 06:12:00,71.8,69.0,30.11,ESE,111,1.0,3.0,92,0.00,,,0.00,weatherlink.com 1.10,2013-05-28 10:12:00,
2013-05-28 06:31:00,71.9,70.0,30.11,ENE,69,5.0,6.0,92,0.00,,,0.00,weatherlink.com 1.10,2013-05-28 10:31:00,
2013-05-28 06:49:00,72.0,70.0,30.12,ENE,60,5.0,5.0,92,0.00,,,0.00,weatherlink.com 1.10,2013-05-28 10:49:00,
2013-05-28 07:07:00,72.2,70.0,30.12,NE,39,1.0,6.0,91,0.00,,,0.00,weatherlink.com 1.10,2013-05-28 11:07:00,
2013-05-28 07:25:00,73.2,70.0,30.13,East,94,3.0,8.0,90,0.00,,,0.00,weatherlink.com 1.10,2013-05-28 11:25:00,
2013-05-28 07:45:00,74.6,71.0,30.12,NE,44,2.0,7.0,87,0.00,,,0.00,weatherlink.com 1.10,2013-05-28 11:45:00,
2013-05-28 08:03:00,75.4,70.0,30.12,NNE,24,3.0,9.0,84,0.00,,,0.00,weatherlink.com 1.10,2013-05-28 12:03:00,
2013-05-28 08:21:00,76.3,70.0,30.13,West,261,2.0,9.0,82,0.00,,,0.00,weatherlink.com 1.10,2013-05-28 12:21:00,
2013-05-28 08:41:00,77.1,71.0,30.14,SE,134,2.0,10.0,81,0.00,,,0.00,weatherlink.com 1.10,2013-05-28 12:41:00,
2013-05-28 08:59:00,77.6,71.0,30.13,SE,138,7.0,10.0,80,0.00,,,0.00,weatherlink.com 1.10,2013-05-28 12:59:00,
2013-05-28 09:17:00,78.7,72.0,30.13,East,100,3.0,9.0,79,0.00,,,0.00,weatherlink.com 1.10,2013-05-28 13:17:00,
2013-05-28 09:36:00,79.6,72.0,30.13,SE,138,3.0,7.0,78,0.00,,,0.00,weatherlink.com 1.10,2013-05-28 13:36:00,
2013-05-28 09:54:00,80.3,72.0,30.12,North,353,1.0,9.0,76,0.00,,,0.00,weatherlink.com 1.10,2013-05-28 13:54:00,
2013-05-28 10:12:00,81.5,73.0,30.12,East,101,3.0,10.0,74,0.00,,,0.00,weatherlink.com 1.10,2013-05-28 14:12:00,
2013-05-28 10:32:00,81.7,72.0,30.13,ENE,76,5.0,12.0,73,0.00,,,0.00,weatherlink.com 1.10,2013-05-28 14:32:00,
2013-05-28 10:50:00,81.8,72.0,30.13,East,87,4.0,10.0,73,0.00,,,0.00,weatherlink.com 1.10,2013-05-28 14:50:00,
2013-05-28 11:08:00,83.0,73.0,30.12,SE,138,3.0,9.0,71,0.00,,,0.00,weatherlink.com 1.10,2013-05-28 15:08:00,
2013-05-28 11:28:00,84.4,72.0,30.12,SE,128,5.0,11.0,67,0.00,,,0.00,weatherlink.com 1.10,2013-05-28 15:28:00,
2013-05-28 11:46:00,85.6,73.0,30.12,ESE,108,4.0,10.0,66,0.00,,,0.00,weatherlink.com 1.10,2013-05-28 15:46:00,
2013-05-28 12:05:00,86.1,73.0,30.12,ESE,104,5.0,8.0,65,0.00,,,0.00,weatherlink.com 1.10,2013-05-28 16:05:00,
2013-05-28 12:23:00,86.5,72.0,30.11,SE,134,5.0,9.0,63,0.00,,,0.00,weatherlink.com 1.10,2013-05-28 16:23:00,
2013-05-28 12:41:00,87.0,73.0,30.11,NE,35,2.0,11.0,63,0.00,,,0.00,weatherlink.com 1.10,2013-05-28 16:41:00,
2013-05-28 12:59:00,87.3,72.0,30.10,East,91,6.0,12.0,60,0.00,,,0.00,weatherlink.com 1.10,2013-05-28 16:59:00,
2013-05-28 13:19:00,88.7,73.0,30.09,SW,223,2.0,11.0,59,0.00,,,0.00,weatherlink.com 1.10,2013-05-28 17:19:00,
2013-05-28 13:37:00,88.8,73.0,30.08,NE,54,4.0,14.0,59,0.00,,,0.00,weatherlink.com 1.10,2013-05-28 17:37:00,
2013-05-28 13:55:00,89.5,72.0,30.08,NE,56,7.0,11.0,57,0.00,,,0.00,weatherlink.com 1.10,2013-05-28 17:55:00,
2013-05-28 14:15:00,90.5,72.0,30.07,SE,144,2.0,11.0,54,0.00,,,0.00,weatherlink.com 1.10,2013-05-28 18:15:00,
2013-05-28 14:33:00,89.8,72.0,30.07,ESE,103,4.0,11.0,56,0.00,,,0.00,weatherlink.com 1.10,2013-05-28 18:33:00,
2013-05-28 14:51:00,88.5,71.0,30.07,NNE,31,3.0,12.0,57,0.00,,,0.00,weatherlink.com 1.10,2013-05-28 18:51:00,
2013-05-28 15:11:00,90.1,72.0,30.07,East,85,10.0,11.0,56,0.00,,,0.00,weatherlink.com 1.10,2013-05-28 19:11:00,
2013-05-28 15:47:00,90.2,73.0,30.05,NNE,13,2.0,11.0,57,0.00,,,0.00,weatherlink.com 1.10,2013-05-28 19:47:00,
2013-05-28 16:05:00,91.5,73.0,30.04,North,10,5.0,9.0,54,0.00,,,0.00,weatherlink.com 1.10,2013-05-28 20:05:00,
2013-05-28 16:25:00,89.1,71.0,30.04,NE,37,5.0,14.0,56,0.00,,,0.00,weatherlink.com 1.10,2013-05-28 20:25:00,
2013-05-28 16:43:00,88.2,71.0,30.04,NE,53,9.0,9.0,57,0.00,,,0.00,weatherlink.com 1.10,2013-05-28 20:43:00,
2013-05-28 17:01:00,88.5,71.0,30.03,SSE,156,7.0,8.0,57,0.00,,,0.00,weatherlink.com 1.10,2013-05-28 21:01:00,
2013-05-28 17:20:00,86.3,74.0,30.03,SSE,155,6.0,10.0,67,0.00,,,0.00,weatherlink.com 1.10,2013-05-28 21:20:00,
2013-05-28 17:38:00,83.3,71.0,30.07,North,352,3.0,17.0,67,0.00,,,0.00,weatherlink.com 1.10,2013-05-28 21:38:00,
2013-05-28 17:56:00,74.6,72.0,30.06,NNW,346,4.0,17.0,91,0.06,,,0.06,weatherlink.com 1.10,2013-05-28 21:56:00,
2013-05-28 18:16:00,73.5,71.0,30.06,North,356,1.0,6.0,92,0.07,,,0.07,weatherlink.com 1.10,2013-05-28 22:16:00,
2013-05-28 18:34:00,74.1,73.0,30.05,NNE,30,1.0,4.0,95,0.07,,,0.07,weatherlink.com 1.10,2013-05-28 22:34:00,
2013-05-28 18:52:00,74.9,73.0,30.05,NE,39,2.0,5.0,95,0.01,,,0.07,weatherlink.com 1.10,2013-05-28 22:52:00,
2013-05-28 19:12:00,75.7,74.0,30.06,ENE,69,4.0,4.0,94,0.00,,,0.07,weatherlink.com 1.10,2013-05-28 23:12:00,
2013-05-28 19:29:00,76.1,74.0,30.06,ENE,77,0.0,5.0,94,0.00,,,0.07,weatherlink.com 1.10,2013-05-28 23:29:00,
2013-05-28 19:49:00,76.8,74.0,30.07,NNE,24,2.0,8.0,91,0.00,,,0.07,weatherlink.com 1.10,2013-05-28 23:49:00,
2013-05-28 20:07:00,76.8,74.0,30.07,East,82,3.0,6.0,91,0.00,,,0.07,weatherlink.com 1.10,2013-05-29 00:07:00,
2013-05-28 20:25:00,76.8,74.0,30.08,NE,53,7.0,9.0,90,0.00,,,0.07,weatherlink.com 1.10,2013-05-29 00:25:00,
2013-05-28 20:43:00,76.7,73.0,30.07,South,176,1.0,11.0,89,0.00,,,0.07,weatherlink.com 1.10,2013-05-29 00:43:00,
2013-05-28 21:03:00,76.3,72.0,30.07,ESE,114,6.0,11.0,86,0.00,,,0.07,weatherlink.com 1.10,2013-05-29 01:03:00,
2013-05-28 21:21:00,76.1,71.0,30.09,NNE,24,4.0,6.0,84,0.00,,,0.07,weatherlink.com 1.10,2013-05-29 01:21:00,
2013-05-28 21:38:00,75.9,72.0,30.09,NNE,27,2.0,6.0,86,0.00,,,0.07,weatherlink.com 1.10,2013-05-29 01:38:00,
2013-05-28 21:53:00,75.8,71.0,30.09,NE,37,2.0,5.0,86,0.00,,,0.07,weatherlink.com 1.10,2013-05-29 01:53:00,
2013-05-28 22:08:00,75.7,72.0,30.10,NNE,20,1.0,8.0,87,0.00,,,0.07,weatherlink.com 1.10,2013-05-29 02:08:00,
2013-05-28 22:23:00,75.6,72.0,30.09,ENE,68,2.0,8.0,87,0.00,,,0.07,weatherlink.com 1.10,2013-05-29 02:23:00,
2013-05-28 22:38:00,75.4,72.0,30.10,North,3,1.0,7.0,88,0.00,,,0.07,weatherlink.com 1.10,2013-05-29 02:38:00,
2013-05-28 22:53:00,75.2,72.0,30.11,ESE,103,1.0,7.0,89,0.00,,,0.07,weatherlink.com 1.10,2013-05-29 02:53:00,
2013-05-28 23:08:00,75.1,72.0,30.11,SE,142,1.0,9.0,89,0.00,,,0.07,weatherlink.com 1.10,2013-05-29 03:08:00,
2013-05-28 23:23:00,75.2,72.0,30.11,NNE,32,1.0,8.0,89,0.00,,,0.07,weatherlink.com 1.10,2013-05-29 03:23:00,
2013-05-28 23:38:00,75.1,72.0,30.11,NNW,333,2.0,7.0,89,0.00,,,0.07,weatherlink.com 1.10,2013-05-29 03:38:00,
2013-05-28 23:53:00,75.0,72.0,30.11,ESE,121,3.0,6.0,90,0.00,,,0.07,weatherlink.com 1.10,2013-05-29 03:53:00,